Zurück zum Katalog

KORSAT-3

AktivWissenschaftVLEO
NORAD 63630·PAYLOAD·🇰🇷 South Korea

Gestartet Apr 22, 2025 von Cape Canaveral Space Force Station

Loading…

Nächste Überflüge (nächste 24 Stunden)

TLE

AktuellSource: Space-Track

Epoche: Sep 14, 2026, 12:04 UTC

1 63630U 25081A   26257.50345736  .00001720  00000-0  15707-3 0  9992
2 63630  45.4118 232.6225 0013943 339.2739  20.7572 14.99343566 76580

Verfolge KORSAT-3 in Echtzeit mit AllMySat

Download on the App Store